Location: Delia
(51.6321°N, 112.3740°W)
Time: 21:05:11
(UTC+00:00)

Envisat - Pass Details

Date: 07 December 2021
Orbit: 764 x 766 km, 98.2° (Epoch: 26 January)

Event Time Altitude Azimuth Distance (km) Brightness Sun altitude
Rises 23:56:15 0° 180° (S) 3,221 6.7 -5.4°
Reaches altitude 10° 23:58:37 10° 186° (S) 2,300 6.0 -5.7°
Maximum altitude 00:03:31 49° 261° (W) 989 4.2 -6.4°
Drops below altitude 10° 00:08:28 10° 336° (NNW) 2,317 5.5 -7.1°
Sets 00:10:52 0° 342° (NNW) 3,248 6.1 -7.4°
